owner,sensor,date,latitude,longitude,vertical_datum,wind_speed,wind_to_direction,wind_speed_of_gust,qcFlag 
TCOON,ioos:station:TCOON:003:1,2015-12-01T00:00:00Z,26.8015,-97.4706,0.0,4.9,346.0,5.3,'11111222,11111222,11111222' 
TCOON,ioos:station:TCOON:003:1,2015-12-01T00:06:00Z,26.8015,-97.4706,0.0,4.5,342.0,5.1,'11111222,11111222,11111222' 
TCOON,ioos:station:TCOON:003:1,2015-12-01T00:12:00Z,26.8015,-97.4706,0.0,4.5,341.0,5.2,'11111222,11111222,11111222' 
TCOON,ioos:station:TCOON:003:1,2015-12-01T00:18:00Z,26.8015,-97.4706,0.0,4.9,334.0,5.3,'11111222,11111222,11111222' 
TCOON,ioos:station:TCOON:003:1,2015-12-01T00:24:00Z,26.8015,-97.4706,0.0,4.8,335.0,5.4,'11111222,11111222,11111222' 
TCOON,ioos:station:TCOON:003:1,2015-12-01T00:30:00Z,26.8015,-97.4706,0.0,4.8,335.0,5.4,'1111122,1111122,1111122' 
TCOON,ioos:station:TCOON:003:1,2015-12-01T00:36:00Z,26.8015,-97.4706,0.0,5.5,334.0,6.3,'11111222,11111222,11111222' 
TCOON,ioos:station:TCOON:003:1,2015-12-01T00:42:00Z,26.8015,-97.4706,0.0,5.0,337.0,6.1,'11111222,11111222,11111222' 
TCOON,ioos:station:TCOON:003:1,2015-12-01T00:48:00Z,26.8015,-97.4706,0.0,5.4,341.0,5.9,'11111222,11111222,11111222' 
TCOON,ioos:station:TCOON:003:1,2015-12-01T00:54:00Z,26.8015,-97.4706,0.0,5.1,336.0,6.0,'11111222,11111222,11111222' 
TCOON,ioos:station:TCOON:003:1,2015-12-01T01:00:00Z,26.8015,-97.4706,0.0,5.1,338.0,6.4,'11111222,11111222,11111222' 
TCOON,ioos:station:TCOON:003:1,2015-12-01T01:06:00Z,26.8015,-97.4706,0.0,4.4,338.0,5.9,'11111222,11111222,11111222' 
TCOON,ioos:station:TCOON:003:1,2015-12-01T01:12:00Z,26.8015,-97.4706,0.0,5.3,341.0,5.9,'11111222,11111222,11111222' 
TCOON,ioos:station:TCOON:003:1,2015-12-01T01:18:00Z,26.8015,-97.4706,0.0,5.7,334.0,6.3,'11111222,11111222,11111222' 
TCOON,ioos:station:TCOON:003:1,2015-12-01T01:24:00Z,26.8015,-97.4706,0.0,5.7,340.0,6.5,'11111222,11111222,11111222' 
TCOON,ioos:station:TCOON:003:1,2015-12-01T01:30:00Z,26.8015,-97.4706,0.0,5.7,340.0,6.5,'1111122,1111122,1111122' 
TCOON,ioos:station:TCOON:003:1,2015-12-01T01:36:00Z,26.8015,-97.4706,0.0,5.2,341.0,6.2,'11111222,11111222,11111222' 
TCOON,ioos:station:TCOON:003:1,2015-12-01T01:42:00Z,26.8015,-97.4706,0.0,5.2,344.0,6.1,'11111222,11111222,11111222' 
TCOON,ioos:station:TCOON:003:1,2015-12-01T01:48:00Z,26.8015,-97.4706,0.0,5.3,354.0,5.7,'11111222,11111222,11111222' 
TCOON,ioos:station:TCOON:003:1,2015-12-01T01:54:00Z,26.8015,-97.4706,0.0,5.2,346.0,6.0,'11111222,11111222,11111222' 
TCOON,ioos:station:TCOON:003:1,2015-12-01T02:00:00Z,26.8015,-97.4706,0.0,5.5,347.0,5.9,'11111222,11111222,11111222' 
TCOON,ioos:station:TCOON:003:1,2015-12-01T02:06:00Z,26.8015,-97.4706,0.0,5.9,347.0,6.6,'11111222,11111222,11111222' 
TCOON,ioos:station:TCOON:003:1,2015-12-01T02:12:00Z,26.8015,-97.4706,0.0,6.0,343.0,6.8,'11111222,11111222,11111222' 
TCOON,ioos:station:TCOON:003:1,2015-12-01T02:18:00Z,26.8015,-97.4706,0.0,4.9,347.0,6.0,'11111222,11111222,11111222' 
TCOON,ioos:station:TCOON:003:1,2015-12-01T02:24:00Z,26.8015,-97.4706,0.0,4.8,2.0,5.8,'11111222,11111222,11111222' 
TCOON,ioos:station:TCOON:003:1,2015-12-01T02:30:00Z,26.8015,-97.4706,0.0,4.8,2.0,5.8,'1111122,1111122,1111122' 
TCOON,ioos:station:TCOON:003:1,2015-12-01T02:36:00Z,26.8015,-97.4706,0.0,4.9,347.0,5.6,'11111222,11111222,11111222' 
TCOON,ioos:station:TCOON:003:1,2015-12-01T02:42:00Z,26.8015,-97.4706,0.0,5.1,346.0,5.6,'11111222,11111222,11111222' 
TCOON,ioos:station:TCOON:003:1,2015-12-01T02:48:00Z,26.8015,-97.4706,0.0,5.1,335.0,5.9,'11111222,11111222,11111222' 
TCOON,ioos:station:TCOON:003:1,2015-12-01T02:54:00Z,26.8015,-97.4706,0.0,5.7,341.0,6.1,'11111222,11111222,11111222' 
TCOON,ioos:station:TCOON:003:1,2015-12-01T03:00:00Z,26.8015,-97.4706,0.0,5.6,342.0,6.3,'11111222,11111222,11111222' 
TCOON,ioos:station:TCOON:003:1,2015-12-01T03:06:00Z,26.8015,-97.4706,0.0,5.7,339.0,6.4,'11111222,11111222,11111222' 
TCOON,ioos:station:TCOON:003:1,2015-12-01T03:12:00Z,26.8015,-97.4706,0.0,5.8,339.0,6.7,'11111222,11111222,11111222' 
TCOON,ioos:station:TCOON:003:1,2015-12-01T03:18:00Z,26.8015,-97.4706,0.0,5.8,339.0,6.7,'1111122,1111122,1111122' 
TCOON,ioos:station:TCOON:003:1,2015-12-01T03:24:00Z,26.8015,-97.4706,0.0,5.2,336.0,5.8,'11111222,11111222,11111222' 
TCOON,ioos:station:TCOON:003:1,2015-12-01T03:30:00Z,26.8015,-97.4706,0.0,5.0,331.0,6.1,'11111222,11111222,11111222' 
TCOON,ioos:station:TCOON:003:1,2015-12-01T03:36:00Z,26.8015,-97.4706,0.0,5.1,333.0,5.8,'11111222,11111222,11111222' 
TCOON,ioos:station:TCOON:003:1,2015-12-01T03:42:00Z,26.8015,-97.4706,0.0,5.2,328.0,5.8,'11111222,11111222,11111222' 
TCOON,ioos:station:TCOON:003:1,2015-12-01T03:48:00Z,26.8015,-97.4706,0.0,5.7,324.0,6.6,'11111222,11111222,11111222' 
TCOON,ioos:station:TCOON:003:1,2015-12-01T03:54:00Z,26.8015,-97.4706,0.0,5.5,329.0,6.6,'11111222,11111222,11111222' 
TCOON,ioos:station:TCOON:003:1,2015-12-01T04:00:00Z,26.8015,-97.4706,0.0,5.7,328.0,6.2,'11111222,11111222,11111222' 
TCOON,ioos:station:TCOON:003:1,2015-12-01T04:06:00Z,26.8015,-97.4706,0.0,5.0,333.0,5.7,'11111222,11111222,11111222' 
TCOON,ioos:station:TCOON:003:1,2015-12-01T04:12:00Z,26.8015,-97.4706,0.0,5.3,333.0,6.0,'11111222,11111222,11111222' 
TCOON,ioos:station:TCOON:003:1,2015-12-01T04:18:00Z,26.8015,-97.4706,0.0,5.6,327.0,6.4,'11111222,11111222,11111222' 
TCOON,ioos:station:TCOON:003:1,2015-12-01T04:24:00Z,26.8015,-97.4706,0.0,5.0,330.0,6.5,'11111222,11111222,11111222' 
TCOON,ioos:station:TCOON:003:1,2015-12-01T04:30:00Z,26.8015,-97.4706,0.0,5.0,330.0,6.5,'1111122,1111122,1111122' 
TCOON,ioos:station:TCOON:003:1,2015-12-01T04:36:00Z,26.8015,-97.4706,0.0,4.7,339.0,5.3,'11111222,11111222,11111222' 
TCOON,ioos:station:TCOON:003:1,2015-12-01T04:42:00Z,26.8015,-97.4706,0.0,4.6,342.0,5.3,'11111222,11111222,11111222' 
TCOON,ioos:station:TCOON:003:1,2015-12-01T04:48:00Z,26.8015,-97.4706,0.0,4.5,341.0,5.3,'11111222,11111222,11111222' 
TCOON,ioos:station:TCOON:003:1,2015-12-01T04:54:00Z,26.8015,-97.4706,0.0,4.1,334.0,5.4,'11111222,11111222,11111222' 
TCOON,ioos:station:TCOON:003:1,2015-12-01T05:00:00Z,26.8015,-97.4706,0.0,3.9,328.0,4.4,'11111222,11111222,11111222' 
TCOON,ioos:station:TCOON:003:1,2015-12-01T05:06:00Z,26.8015,-97.4706,0.0,3.4,327.0,4.3,'11111222,11111222,11111222' 
TCOON,ioos:station:TCOON:003:1,2015-12-01T05:12:00Z,26.8015,-97.4706,0.0,3.6,325.0,4.1,'11111222,11111222,11111222' 
TCOON,ioos:station:TCOON:003:1,2015-12-01T05:18:00Z,26.8015,-97.4706,0.0,3.7,324.0,4.1,'11111222,11111222,11111222' 
TCOON,ioos:station:TCOON:003:1,2015-12-01T05:24:00Z,26.8015,-97.4706,0.0,3.8,324.0,4.3,'11111222,11111222,11111222' 
TCOON,ioos:station:TCOON:003:1,2015-12-01T05:30:00Z,26.8015,-97.4706,0.0,3.1,331.0,3.9,'11111222,11111222,11111222' 
TCOON,ioos:station:TCOON:003:1,2015-12-01T05:36:00Z,26.8015,-97.4706,0.0,3.1,331.0,3.9,'1111122,1111122,1111122' 
TCOON,ioos:station:TCOON:003:1,2015-12-01T05:42:00Z,26.8015,-97.4706,0.0,4.0,337.0,4.2,'11111222,11111222,11111222' 
TCOON,ioos:station:TCOON:003:1,2015-12-01T05:48:00Z,26.8015,-97.4706,0.0,3.6,334.0,4.8,'11111222,11111222,11111222' 
TCOON,ioos:station:TCOON:003:1,2015-12-01T05:54:00Z,26.8015,-97.4706,0.0,4.0,336.0,4.2,'11111222,11111222,11111222' 
TCOON,ioos:station:TCOON:003:1,2015-12-01T06:00:00Z,26.8015,-97.4706,0.0,3.3,332.0,4.3,'11111222,11111222,11111222' 
TCOON,ioos:station:TCOON:003:1,2015-12-01T06:06:00Z,26.8015,-97.4706,0.0,3.4,347.0,3.8,'11111222,11111222,11111222' 
TCOON,ioos:station:TCOON:003:1,2015-12-01T06:12:00Z,26.8015,-97.4706,0.0,4.4,343.0,4.7,'11111222,11111222,11111222' 
TCOON,ioos:station:TCOON:003:1,2015-12-01T06:18:00Z,26.8015,-97.4706,0.0,4.3,335.0,5.2,'11111222,11111222,11111222' 
TCOON,ioos:station:TCOON:003:1,2015-12-01T06:24:00Z,26.8015,-97.4706,0.0,4.3,335.0,5.2,'1111122,1111122,1111122' 
TCOON,ioos:station:TCOON:003:1,2015-12-01T06:30:00Z,26.8015,-97.4706,0.0,4.1,340.0,4.7,'11111222,11111222,11111222' 
TCOON,ioos:station:TCOON:003:1,2015-12-01T06:36:00Z,26.8015,-97.4706,0.0,3.7,337.0,4.4,'11111222,11111222,11111222' 
TCOON,ioos:station:TCOON:003:1,2015-12-01T06:42:00Z,26.8015,-97.4706,0.0,3.9,321.0,4.5,'11111222,11111222,11111222' 
TCOON,ioos:station:TCOON:003:1,2015-12-01T06:48:00Z,26.8015,-97.4706,0.0,4.1,323.0,4.9,'11111222,11111222,11111222' 
TCOON,ioos:station:TCOON:003:1,2015-12-01T06:54:00Z,26.8015,-97.4706,0.0,4.5,330.0,5.2,'11111222,11111222,11111222' 
TCOON,ioos:station:TCOON:003:1,2015-12-01T07:00:00Z,26.8015,-97.4706,0.0,5.0,333.0,5.7,'11111222,11111222,11111222' 
TCOON,ioos:station:TCOON:003:1,2015-12-01T07:06:00Z,26.8015,-97.4706,0.0,4.0,333.0,5.4,'11111222,11111222,11111222' 
TCOON,ioos:station:TCOON:003:1,2015-12-01T07:12:00Z,26.8015,-97.4706,0.0,4.1,330.0,4.6,'11111222,11111222,11111222' 
TCOON,ioos:station:TCOON:003:1,2015-12-01T07:18:00Z,26.8015,-97.4706,0.0,3.7,331.0,4.1,'11111222,11111222,11111222' 
TCOON,ioos:station:TCOON:003:1,2015-12-01T07:24:00Z,26.8015,-97.4706,0.0,3.7,331.0,4.1,'1111122,1111122,1111122' 
TCOON,ioos:station:TCOON:003:1,2015-12-01T07:30:00Z,26.8015,-97.4706,0.0,3.8,326.0,4.4,'11111222,11111222,11111222' 
TCOON,ioos:station:TCOON:003:1,2015-12-01T07:36:00Z,26.8015,-97.4706,0.0,4.0,325.0,4.5,'11111222,11111222,11111222' 
TCOON,ioos:station:TCOON:003:1,2015-12-01T07:42:00Z,26.8015,-97.4706,0.0,4.4,320.0,4.9,'11111222,11111222,11111222' 
TCOON,ioos:station:TCOON:003:1,2015-12-01T07:48:00Z,26.8015,-97.4706,0.0,4.2,320.0,4.9,'11111222,11111222,11111222' 
TCOON,ioos:station:TCOON:003:1,2015-12-01T07:54:00Z,26.8015,-97.4706,0.0,4.6,315.0,5.1,'11111222,11111222,11111222' 
TCOON,ioos:station:TCOON:003:1,2015-12-01T08:00:00Z,26.8015,-97.4706,0.0,4.8,313.0,5.3,'11111222,11111222,11111222' 
TCOON,ioos:station:TCOON:003:1,2015-12-01T08:06:00Z,26.8015,-97.4706,0.0,4.6,313.0,5.1,'11111222,11111222,11111222' 
TCOON,ioos:station:TCOON:003:1,2015-12-01T08:12:00Z,26.8015,-97.4706,0.0,4.7,317.0,5.6,'11111222,11111222,11111222' 
TCOON,ioos:station:TCOON:003:1,2015-12-01T08:18:00Z,26.8015,-97.4706,0.0,4.9,323.0,5.3,'11111222,11111222,11111222' 
TCOON,ioos:station:TCOON:003:1,2015-12-01T08:24:00Z,26.8015,-97.4706,0.0,4.9,321.0,5.5,'11111222,11111222,11111222' 
TCOON,ioos:station:TCOON:003:1,2015-12-01T08:30:00Z,26.8015,-97.4706,0.0,4.9,321.0,5.5,'1111122,1111122,1111122' 
TCOON,ioos:station:TCOON:003:1,2015-12-01T08:36:00Z,26.8015,-97.4706,0.0,4.4,325.0,4.8,'11111222,11111222,11111222' 
TCOON,ioos:station:TCOON:003:1,2015-12-01T08:42:00Z,26.8015,-97.4706,0.0,4.4,328.0,4.8,'11111222,11111222,11111222' 
TCOON,ioos:station:TCOON:003:1,2015-12-01T08:48:00Z,26.8015,-97.4706,0.0,5.0,322.0,5.4,'11111222,11111222,11111222' 
TCOON,ioos:station:TCOON:003:1,2015-12-01T08:54:00Z,26.8015,-97.4706,0.0,5.4,327.0,5.9,'11111222,11111222,11111222' 
TCOON,ioos:station:TCOON:003:1,2015-12-01T09:00:00Z,26.8015,-97.4706,0.0,5.8,331.0,6.3,'11111222,11111222,11111222' 
TCOON,ioos:station:TCOON:003:1,2015-12-01T09:06:00Z,26.8015,-97.4706,0.0,5.1,342.0,5.9,'11111222,11111222,11111222' 
TCOON,ioos:station:TCOON:003:1,2015-12-01T09:12:00Z,26.8015,-97.4706,0.0,5.0,340.0,5.9,'11111222,11111222,11111222' 
TCOON,ioos:station:TCOON:003:1,2015-12-01T09:18:00Z,26.8015,-97.4706,0.0,5.0,342.0,5.8,'11111222,11111222,11111222' 
TCOON,ioos:station:TCOON:003:1,2015-12-01T09:24:00Z,26.8015,-97.4706,0.0,4.5,339.0,5.9,'11111222,11111222,11111222' 
TCOON,ioos:station:TCOON:003:1,2015-12-01T09:30:00Z,26.8015,-97.4706,0.0,4.5,339.0,5.9,'1111122,1111122,1111122' 
TCOON,ioos:station:TCOON:003:1,2015-12-01T09:36:00Z,26.8015,-97.4706,0.0,2.9,357.0,4.1,'11111222,11111222,11111222' 
TCOON,ioos:station:TCOON:003:1,2015-12-01T09:42:00Z,26.8015,-97.4706,0.0,3.8,349.0,4.0,'11111222,11111222,11111222' 
TCOON,ioos:station:TCOON:003:1,2015-12-01T09:48:00Z,26.8015,-97.4706,0.0,4.1,348.0,4.4,'11111222,11111222,11111222' 
TCOON,ioos:station:TCOON:003:1,2015-12-01T09:54:00Z,26.8015,-97.4706,0.0,4.3,348.0,5.2,'11111222,11111222,11111222' 
TCOON,ioos:station:TCOON:003:1,2015-12-01T10:00:00Z,26.8015,-97.4706,0.0,4.4,349.0,4.9,'11111222,11111222,11111222' 
TCOON,ioos:station:TCOON:003:1,2015-12-01T10:06:00Z,26.8015,-97.4706,0.0,4.7,348.0,5.6,'11111222,11111222,11111222' 
TCOON,ioos:station:TCOON:003:1,2015-12-01T10:12:00Z,26.8015,-97.4706,0.0,5.8,355.0,6.7,'11111222,11111222,11111222' 
TCOON,ioos:station:TCOON:003:1,2015-12-01T10:18:00Z,26.8015,-97.4706,0.0,6.4,353.0,7.1,'11111222,11111222,11111222' 
TCOON,ioos:station:TCOON:003:1,2015-12-01T10:24:00Z,26.8015,-97.4706,0.0,5.6,346.0,6.8,'11111222,11111222,11111222' 
TCOON,ioos:station:TCOON:003:1,2015-12-01T10:30:00Z,26.8015,-97.4706,0.0,5.6,346.0,6.8,'1111122,1111122,1111122' 
TCOON,ioos:station:TCOON:003:1,2015-12-01T10:36:00Z,26.8015,-97.4706,0.0,4.7,347.0,5.2,'11111222,11111222,11111222' 
TCOON,ioos:station:TCOON:003:1,2015-12-01T10:42:00Z,26.8015,-97.4706,0.0,4.5,350.0,5.3,'11111222,11111222,11111222' 
TCOON,ioos:station:TCOON:003:1,2015-12-01T10:48:00Z,26.8015,-97.4706,0.0,3.3,358.0,4.6,'11111222,11111222,11111222' 
TCOON,ioos:station:TCOON:003:1,2015-12-01T10:54:00Z,26.8015,-97.4706,0.0,3.7,348.0,4.4,'11111222,11111222,11111222' 
TCOON,ioos:station:TCOON:003:1,2015-12-01T11:00:00Z,26.8015,-97.4706,0.0,4.0,345.0,4.4,'11111222,11111222,11111222' 
TCOON,ioos:station:TCOON:003:1,2015-12-01T11:06:00Z,26.8015,-97.4706,0.0,3.0,337.0,3.9,'11111222,11111222,11111222' 
TCOON,ioos:station:TCOON:003:1,2015-12-01T11:12:00Z,26.8015,-97.4706,0.0,4.3,336.0,4.7,'11111222,11111222,11111222' 
TCOON,ioos:station:TCOON:003:1,2015-12-01T11:18:00Z,26.8015,-97.4706,0.0,4.7,342.0,5.2,'11111222,11111222,11111222' 
TCOON,ioos:station:TCOON:003:1,2015-12-01T11:24:00Z,26.8015,-97.4706,0.0,4.7,342.0,5.2,'1111122,1111122,1111122' 
TCOON,ioos:station:TCOON:003:1,2015-12-01T11:30:00Z,26.8015,-97.4706,0.0,5.4,340.0,5.9,'11111222,11111222,11111222' 
TCOON,ioos:station:TCOON:003:1,2015-12-01T11:36:00Z,26.8015,-97.4706,0.0,5.0,339.0,5.8,'11111222,11111222,11111222' 
TCOON,ioos:station:TCOON:003:1,2015-12-01T11:42:00Z,26.8015,-97.4706,0.0,5.8,325.0,6.2,'11111222,11111222,11111222' 
TCOON,ioos:station:TCOON:003:1,2015-12-01T11:48:00Z,26.8015,-97.4706,0.0,6.6,326.0,7.4,'11111222,11111222,11111222' 
TCOON,ioos:station:TCOON:003:1,2015-12-01T11:54:00Z,26.8015,-97.4706,0.0,5.9,326.0,7.1,'11111222,11111222,11111222' 
TCOON,ioos:station:TCOON:003:1,2015-12-01T12:00:00Z,26.8015,-97.4706,0.0,5.5,328.0,6.9,'11111222,11111222,11111222' 
TCOON,ioos:station:TCOON:003:1,2015-12-01T12:06:00Z,26.8015,-97.4706,0.0,5.5,330.0,6.5,'11111222,11111222,11111222' 
TCOON,ioos:station:TCOON:003:1,2015-12-01T12:12:00Z,26.8015,-97.4706,0.0,5.6,332.0,6.2,'11111222,11111222,11111222' 
TCOON,ioos:station:TCOON:003:1,2015-12-01T12:18:00Z,26.8015,-97.4706,0.0,6.2,335.0,6.8,'11111222,11111222,11111222' 
TCOON,ioos:station:TCOON:003:1,2015-12-01T12:24:00Z,26.8015,-97.4706,0.0,5.7,327.0,7.0,'11111222,11111222,11111222' 
TCOON,ioos:station:TCOON:003:1,2015-12-01T12:30:00Z,26.8015,-97.4706,0.0,5.7,327.0,7.0,'1111122,1111122,1111122' 
TCOON,ioos:station:TCOON:003:1,2015-12-01T12:36:00Z,26.8015,-97.4706,0.0,6.1,337.0,7.0,'11111222,11111222,11111222' 
TCOON,ioos:station:TCOON:003:1,2015-12-01T12:42:00Z,26.8015,-97.4706,0.0,6.2,324.0,7.2,'11111222,11111222,11111222' 
TCOON,ioos:station:TCOON:003:1,2015-12-01T12:48:00Z,26.8015,-97.4706,0.0,5.2,321.0,6.2,'11111222,11111222,11111222' 
TCOON,ioos:station:TCOON:003:1,2015-12-01T12:54:00Z,26.8015,-97.4706,0.0,5.4,332.0,6.2,'11111222,11111222,11111222' 
TCOON,ioos:station:TCOON:003:1,2015-12-01T13:00:00Z,26.8015,-97.4706,0.0,4.5,329.0,6.1,'11111222,11111222,11111222' 
TCOON,ioos:station:TCOON:003:1,2015-12-01T13:06:00Z,26.8015,-97.4706,0.0,2.9,341.0,4.2,'11111222,11111222,11111222' 
TCOON,ioos:station:TCOON:003:1,2015-12-01T13:12:00Z,26.8015,-97.4706,0.0,3.0,3.0,4.1,'11111222,11111222,11111222' 
TCOON,ioos:station:TCOON:003:1,2015-12-01T13:18:00Z,26.8015,-97.4706,0.0,3.2,345.0,3.8,'11111222,11111222,11111222' 
TCOON,ioos:station:TCOON:003:1,2015-12-01T13:24:00Z,26.8015,-97.4706,0.0,2.7,1.0,4.0,'11111222,11111222,11111222' 
TCOON,ioos:station:TCOON:003:1,2015-12-01T13:30:00Z,26.8015,-97.4706,0.0,2.7,1.0,4.0,'1111122,1111122,1111122' 
TCOON,ioos:station:TCOON:003:1,2015-12-01T13:36:00Z,26.8015,-97.4706,0.0,5.2,340.0,6.0,'11111222,11111222,11111222' 
TCOON,ioos:station:TCOON:003:1,2015-12-01T13:42:00Z,26.8015,-97.4706,0.0,6.0,347.0,6.8,'11111222,11111222,11111222' 
TCOON,ioos:station:TCOON:003:1,2015-12-01T13:48:00Z,26.8015,-97.4706,0.0,6.6,343.0,7.4,'11111222,11111222,11111222' 
TCOON,ioos:station:TCOON:003:1,2015-12-01T13:54:00Z,26.8015,-97.4706,0.0,7.4,350.0,8.2,'11111222,11111222,11111222' 
TCOON,ioos:station:TCOON:003:1,2015-12-01T14:00:00Z,26.8015,-97.4706,0.0,6.6,345.0,7.9,'11111222,11111222,11111222' 
TCOON,ioos:station:TCOON:003:1,2015-12-01T14:06:00Z,26.8015,-97.4706,0.0,6.4,355.0,7.7,'11111222,11111222,11111222' 
TCOON,ioos:station:TCOON:003:1,2015-12-01T14:12:00Z,26.8015,-97.4706,0.0,5.9,352.0,6.8,'11111222,11111222,11111222' 
TCOON,ioos:station:TCOON:003:1,2015-12-01T14:18:00Z,26.8015,-97.4706,0.0,6.1,356.0,6.5,'11111222,11111222,11111222' 
TCOON,ioos:station:TCOON:003:1,2015-12-01T14:24:00Z,26.8015,-97.4706,0.0,6.1,356.0,6.5,'1111122,1111122,1111122' 
TCOON,ioos:station:TCOON:003:1,2015-12-01T14:30:00Z,26.8015,-97.4706,0.0,5.1,349.0,6.1,'11111222,11111222,11111222' 
TCOON,ioos:station:TCOON:003:1,2015-12-01T14:36:00Z,26.8015,-97.4706,0.0,4.5,2.0,5.5,'11111222,11111222,11111222' 
TCOON,ioos:station:TCOON:003:1,2015-12-01T14:42:00Z,26.8015,-97.4706,0.0,4.0,4.0,4.9,'11111222,11111222,11111222' 
TCOON,ioos:station:TCOON:003:1,2015-12-01T14:48:00Z,26.8015,-97.4706,0.0,4.7,4.0,5.3,'11111222,11111222,11111222' 
TCOON,ioos:station:TCOON:003:1,2015-12-01T14:54:00Z,26.8015,-97.4706,0.0,4.6,350.0,5.5,'11111222,11111222,11111222' 
TCOON,ioos:station:TCOON:003:1,2015-12-01T15:00:00Z,26.8015,-97.4706,0.0,4.1,5.0,5.1,'11111222,11111222,11111222' 
TCOON,ioos:station:TCOON:003:1,2015-12-01T15:06:00Z,26.8015,-97.4706,0.0,4.7,348.0,5.2,'11111222,11111222,11111222' 
TCOON,ioos:station:TCOON:003:1,2015-12-01T15:12:00Z,26.8015,-97.4706,0.0,4.8,339.0,5.8,'11111222,11111222,11111222' 
TCOON,ioos:station:TCOON:003:1,2015-12-01T15:18:00Z,26.8015,-97.4706,0.0,5.7,341.0,6.3,'11111222,11111222,11111222' 
TCOON,ioos:station:TCOON:003:1,2015-12-01T15:24:00Z,26.8015,-97.4706,0.0,4.8,352.0,5.9,'11111222,11111222,11111222' 
TCOON,ioos:station:TCOON:003:1,2015-12-01T15:30:00Z,26.8015,-97.4706,0.0,4.8,352.0,5.9,'1111122,1111122,1111122' 
TCOON,ioos:station:TCOON:003:1,2015-12-01T15:36:00Z,26.8015,-97.4706,0.0,4.6,351.0,5.2,'11111222,11111222,11111222' 
TCOON,ioos:station:TCOON:003:1,2015-12-01T15:42:00Z,26.8015,-97.4706,0.0,4.9,347.0,5.6,'11111222,11111222,11111222' 
TCOON,ioos:station:TCOON:003:1,2015-12-01T15:48:00Z,26.8015,-97.4706,0.0,5.0,346.0,5.5,'11111222,11111222,11111222' 
TCOON,ioos:station:TCOON:003:1,2015-12-01T15:54:00Z,26.8015,-97.4706,0.0,5.1,345.0,5.8,'11111222,11111222,11111222' 
TCOON,ioos:station:TCOON:003:1,2015-12-01T16:00:00Z,26.8015,-97.4706,0.0,5.3,345.0,6.6,'11111222,11111222,11111222' 
TCOON,ioos:station:TCOON:003:1,2015-12-01T16:06:00Z,26.8015,-97.4706,0.0,5.9,346.0,6.4,'11111222,11111222,11111222' 
TCOON,ioos:station:TCOON:003:1,2015-12-01T16:12:00Z,26.8015,-97.4706,0.0,5.7,349.0,6.3,'11111222,11111222,11111222' 
TCOON,ioos:station:TCOON:003:1,2015-12-01T16:18:00Z,26.8015,-97.4706,0.0,4.9,346.0,5.6,'11111222,11111222,11111222' 
TCOON,ioos:station:TCOON:003:1,2015-12-01T16:24:00Z,26.8015,-97.4706,0.0,6.0,332.0,6.9,'11111222,11111222,11111222' 
TCOON,ioos:station:TCOON:003:1,2015-12-01T16:30:00Z,26.8015,-97.4706,0.0,6.2,335.0,7.1,'11111222,11111222,11111222' 
TCOON,ioos:station:TCOON:003:1,2015-12-01T16:36:00Z,26.8015,-97.4706,0.0,6.2,335.0,7.1,'1111122,1111122,1111122' 
TCOON,ioos:station:TCOON:003:1,2015-12-01T16:42:00Z,26.8015,-97.4706,0.0,5.4,352.0,6.6,'11111222,11111222,11111222' 
TCOON,ioos:station:TCOON:003:1,2015-12-01T16:48:00Z,26.8015,-97.4706,0.0,5.8,343.0,6.6,'11111222,11111222,11111222' 
TCOON,ioos:station:TCOON:003:1,2015-12-01T16:54:00Z,26.8015,-97.4706,0.0,5.9,343.0,6.6,'11111222,11111222,11111222' 
TCOON,ioos:station:TCOON:003:1,2015-12-01T17:00:00Z,26.8015,-97.4706,0.0,5.8,345.0,6.8,'11111222,11111222,11111222' 
TCOON,ioos:station:TCOON:003:1,2015-12-01T17:06:00Z,26.8015,-97.4706,0.0,6.5,343.0,7.1,'11111222,11111222,11111222' 
TCOON,ioos:station:TCOON:003:1,2015-12-01T17:12:00Z,26.8015,-97.4706,0.0,5.8,341.0,7.2,'11111222,11111222,11111222' 
TCOON,ioos:station:TCOON:003:1,2015-12-01T17:18:00Z,26.8015,-97.4706,0.0,6.0,339.0,6.9,'11111222,11111222,11111222' 
TCOON,ioos:station:TCOON:003:1,2015-12-01T17:24:00Z,26.8015,-97.4706,0.0,6.0,339.0,6.9,'1111122,1111122,1111122' 
TCOON,ioos:station:TCOON:003:1,2015-12-01T17:30:00Z,26.8015,-97.4706,0.0,6.3,343.0,7.1,'11111222,11111222,11111222' 
TCOON,ioos:station:TCOON:003:1,2015-12-01T17:36:00Z,26.8015,-97.4706,0.0,6.5,341.0,7.0,'11111222,11111222,11111222' 
TCOON,ioos:station:TCOON:003:1,2015-12-01T17:42:00Z,26.8015,-97.4706,0.0,5.7,339.0,7.0,'11111222,11111222,11111222' 
TCOON,ioos:station:TCOON:003:1,2015-12-01T17:48:00Z,26.8015,-97.4706,0.0,6.4,345.0,7.4,'11111222,11111222,11111222' 
TCOON,ioos:station:TCOON:003:1,2015-12-01T17:54:00Z,26.8015,-97.4706,0.0,6.1,342.0,7.3,'11111222,11111222,11111222' 
TCOON,ioos:station:TCOON:003:1,2015-12-01T18:00:00Z,26.8015,-97.4706,0.0,6.4,341.0,7.2,'11111222,11111222,11111222' 
TCOON,ioos:station:TCOON:003:1,2015-12-01T18:06:00Z,26.8015,-97.4706,0.0,6.9,338.0,7.4,'11111222,11111222,11111222' 
TCOON,ioos:station:TCOON:003:1,2015-12-01T18:12:00Z,26.8015,-97.4706,0.0,6.5,339.0,7.5,'11111222,11111222,11111222' 
TCOON,ioos:station:TCOON:003:1,2015-12-01T18:18:00Z,26.8015,-97.4706,0.0,6.4,339.0,7.7,'11111222,11111222,11111222' 
TCOON,ioos:station:TCOON:003:1,2015-12-01T18:24:00Z,26.8015,-97.4706,0.0,6.6,344.0,7.4,'11111222,11111222,11111222' 
TCOON,ioos:station:TCOON:003:1,2015-12-01T18:30:00Z,26.8015,-97.4706,0.0,5.8,344.0,7.3,'11111222,11111222,11111222' 
TCOON,ioos:station:TCOON:003:1,2015-12-01T18:36:00Z,26.8015,-97.4706,0.0,5.8,344.0,7.3,'1111122,1111122,1111122' 
TCOON,ioos:station:TCOON:003:1,2015-12-01T18:42:00Z,26.8015,-97.4706,0.0,5.9,340.0,7.3,'11111222,11111222,11111222' 
TCOON,ioos:station:TCOON:003:1,2015-12-01T18:48:00Z,26.8015,-97.4706,0.0,6.0,345.0,6.9,'11111222,11111222,11111222' 
TCOON,ioos:station:TCOON:003:1,2015-12-01T18:54:00Z,26.8015,-97.4706,0.0,6.7,344.0,7.4,'11111222,11111222,11111222' 
TCOON,ioos:station:TCOON:003:1,2015-12-01T19:00:00Z,26.8015,-97.4706,0.0,5.8,331.0,6.7,'11111222,11111222,11111222' 
TCOON,ioos:station:TCOON:003:1,2015-12-01T19:06:00Z,26.8015,-97.4706,0.0,5.2,333.0,6.2,'11111222,11111222,11111222' 
TCOON,ioos:station:TCOON:003:1,2015-12-01T19:12:00Z,26.8015,-97.4706,0.0,5.5,333.0,6.0,'11111222,11111222,11111222' 
TCOON,ioos:station:TCOON:003:1,2015-12-01T19:18:00Z,26.8015,-97.4706,0.0,5.4,331.0,6.3,'11111222,11111222,11111222' 
TCOON,ioos:station:TCOON:003:1,2015-12-01T19:24:00Z,26.8015,-97.4706,0.0,5.6,331.0,6.3,'11111222,11111222,11111222' 
TCOON,ioos:station:TCOON:003:1,2015-12-01T19:30:00Z,26.8015,-97.4706,0.0,5.6,331.0,6.3,'1111122,1111122,1111122' 
TCOON,ioos:station:TCOON:003:1,2015-12-01T19:36:00Z,26.8015,-97.4706,0.0,5.9,330.0,6.5,'11111222,11111222,11111222' 
TCOON,ioos:station:TCOON:003:1,2015-12-01T19:42:00Z,26.8015,-97.4706,0.0,5.4,339.0,6.6,'11111222,11111222,11111222' 
TCOON,ioos:station:TCOON:003:1,2015-12-01T19:48:00Z,26.8015,-97.4706,0.0,5.5,338.0,6.3,'11111222,11111222,11111222' 
TCOON,ioos:station:TCOON:003:1,2015-12-01T19:54:00Z,26.8015,-97.4706,0.0,6.0,344.0,6.7,'11111222,11111222,11111222' 
TCOON,ioos:station:TCOON:003:1,2015-12-01T20:00:00Z,26.8015,-97.4706,0.0,5.7,343.0,6.6,'11111222,11111222,11111222' 
TCOON,ioos:station:TCOON:003:1,2015-12-01T20:06:00Z,26.8015,-97.4706,0.0,5.6,346.0,7.1,'11111222,11111222,11111222' 
TCOON,ioos:station:TCOON:003:1,2015-12-01T20:12:00Z,26.8015,-97.4706,0.0,5.4,339.0,6.2,'11111222,11111222,11111222' 
TCOON,ioos:station:TCOON:003:1,2015-12-01T20:18:00Z,26.8015,-97.4706,0.0,5.5,351.0,6.4,'11111222,11111222,11111222' 